Location: Bernay
(48.6766°N, 2.9386°E)
Time: 00:05:53
(UTC+00:00)

SL-16 R/B - Pass Details

Date: 12 January 2026
Orbit: 841 x 846 km, 71.0° (Epoch: 16 February)

Event Time Altitude Azimuth Distance (km) Brightness Sun altitude
Rises 17:46:28 0° 226° (SW) 3,392 6.5 -14.4°
Reaches altitude 10° 17:49:00 10° 232° (SW) 2,460 5.7 -14.8°
Maximum altitude 17:54:26 47° 306° (NW) 1,112 3.1 -15.7°
Drops below altitude 10° 17:59:54 10° 20° (NNE) 2,471 4.3 -16.5°
Enters shadow 18:00:24 - 21° (NNE) 2,651 4.5 -16.6°
